TimeCDT,TemperatureF,Dew PointF,Humidity,Sea Level PressureIn,VisibilityMPH,Wind Direction,Wind SpeedMPH,Gust SpeedMPH,PrecipitationIn,Events,Conditions,WindDirDegrees,DateUTC
12:58 AM,73.0,72.0,96,29.75,7.0,ESE,11.5,-,N/A,,Clear,120,2013-05-18 05:58:00
1:58 AM,72.5,72.5,100,29.74,8.0,ESE,12.7,-,N/A,,Clear,110,2013-05-18 06:58:00
2:18 AM,73.4,73.4,100,29.78,8.0,ESE,10.4,-,N/A,,Partly Cloudy,120,2013-05-18 07:18:00
2:58 AM,72.3,72.3,100,29.73,7.0,ESE,10.4,-,N/A,,Partly Cloudy,120,2013-05-18 07:58:00
3:58 AM,71.6,71.6,100,29.74,8.0,ESE,6.9,-,N/A,,Mostly Cloudy,120,2013-05-18 08:58:00
4:33 AM,71.6,71.6,100,29.77,7.0,ESE,8.1,-,N/A,,Overcast,110,2013-05-18 09:33:00
4:58 AM,71.2,71.2,100,29.73,6.0,ESE,9.2,-,N/A,,Overcast,120,2013-05-18 09:58:00
5:58 AM,71.4,71.4,100,29.73,6.0,ESE,8.1,-,N/A,,Scattered Clouds,110,2013-05-18 10:58:00
6:38 AM,71.6,71.6,100,29.79,6.0,ESE,4.6,-,N/A,,Scattered Clouds,120,2013-05-18 11:38:00
6:58 AM,71.2,71.2,100,29.75,5.0,ESE,5.8,-,N/A,,Partly Cloudy,120,2013-05-18 11:58:00
7:58 AM,72.3,72.3,100,29.76,5.0,ESE,9.2,-,N/A,,Partly Cloudy,120,2013-05-18 12:58:00
8:58 AM,74.8,73.4,95,29.78,8.0,ESE,9.2,-,N/A,,Partly Cloudy,120,2013-05-18 13:58:00
9:58 AM,79.7,71.4,76,29.77,10.0,SE,16.1,-,N/A,,Partly Cloudy,140,2013-05-18 14:58:00
10:58 AM,86.2,70.9,60,29.75,10.0,SSE,16.1,-,N/A,,Scattered Clouds,150,2013-05-18 15:58:00
11:58 AM,89.2,70.0,53,29.74,10.0,South,20.7,-,N/A,,Clear,170,2013-05-18 16:58:00
12:58 PM,91.6,69.4,48,29.72,10.0,South,17.3,28.8,N/A,,Partly Cloudy,170,2013-05-18 17:58:00
1:37 PM,93.2,68.0,44,29.75,10.0,South,16.1,24.2,N/A,,Partly Cloudy,190,2013-05-18 18:37:00
1:58 PM,95.0,68.2,41,29.69,10.0,SSE,18.4,25.3,N/A,,Partly Cloudy,160,2013-05-18 18:58:00
2:58 PM,97.5,60.3,29,29.65,10.0,SSE,17.3,-,N/A,,Scattered Clouds,160,2013-05-18 19:58:00
3:45 PM,98.6,62.6,30,29.68,10.0,South,20.7,-,N/A,,Clear,180,2013-05-18 20:45:00
3:58 PM,99.0,63.0,30,29.62,10.0,SSE,19.6,31.1,N/A,,Clear,150,2013-05-18 20:58:00
4:38 PM,93.2,66.2,41,29.66,10.0,SSE,26.5,36.8,N/A,Rain-Hail-Thunderstorm,Light Thunderstorms and Rain,150,2013-05-18 21:38:00
4:53 PM,84.2,68.0,58,29.64,2.5,Variable,5.8,-,N/A,Rain-Thunderstorm,Light Rain,0,2013-05-18 21:53:00
4:54 PM,82.4,68.0,62,29.64,2.5,Variable,4.6,-,N/A,Thunderstorm,Haze,0,2013-05-18 21:54:00
4:58 PM,83.1,68.0,60,29.61,3.0,North,8.1,-,0.03,Thunderstorm,Haze,360,2013-05-18 21:58:00
4:59 PM,84.2,68.0,58,29.65,4.0,NNE,8.1,-,N/A,Thunderstorm,Unknown,30,2013-05-18 21:59:00
5:49 PM,86.0,68.0,55,29.63,10.0,SW,4.6,-,N/A,Thunderstorm,Thunderstorm,220,2013-05-18 22:49:00
5:58 PM,87.1,67.3,52,29.57,10.0,South,8.1,-,N/A,Thunderstorm,Thunderstorm,190,2013-05-18 22:58:00
6:13 PM,84.2,68.0,58,29.63,10.0,East,8.1,18.4,N/A,,Mostly Cloudy,100,2013-05-18 23:13:00
6:33 PM,82.4,69.8,66,29.60,10.0,ENE,5.8,-,N/A,Rain-Thunderstorm,Light Thunderstorms and Rain,60,2013-05-18 23:33:00
6:55 PM,78.8,68.0,69,29.55,7.0,SSE,9.2,23.0,0.03,Rain-Thunderstorm,Light Thunderstorms and Rain,150,2013-05-18 23:55:00
7:55 PM,71.4,63.0,75,29.60,10.0,NE,18.4,33.4,0.00,Rain-Thunderstorm,Light Rain,50,2013-05-19 00:55:00
8:24 PM,69.8,66.2,88,29.63,10.0,NE,18.4,-,N/A,Thunderstorm,Mostly Cloudy,40,2013-05-19 01:24:00
8:31 PM,69.8,66.2,88,29.64,10.0,ENE,20.7,27.6,N/A,Rain-Thunderstorm,Light Rain,70,2013-05-19 01:31:00
8:34 PM,69.8,66.2,88,29.64,7.0,East,19.6,27.6,N/A,Rain-Thunderstorm,Light Rain,80,2013-05-19 01:34:00
8:39 PM,69.8,64.4,83,29.63,7.0,NE,16.1,27.6,N/A,Rain-Thunderstorm,Light Rain,50,2013-05-19 01:39:00
8:40 PM,69.8,64.4,83,29.63,7.0,NNE,20.7,27.6,N/A,Rain-Thunderstorm,Light Rain,30,2013-05-19 01:40:00
8:43 PM,69.8,66.2,88,29.65,8.0,NE,19.6,-,N/A,Thunderstorm,Overcast,40,2013-05-19 01:43:00
8:47 PM,69.8,66.2,88,29.64,4.0,NE,17.3,-,N/A,Rain-Hail-Thunderstorm,Light Thunderstorms and Rain,40,2013-05-19 01:47:00
8:55 PM,69.8,66.2,88,29.67,4.0,NNE,18.4,24.2,0.02,Rain-Thunderstorm,Light Thunderstorms and Rain,30,2013-05-19 01:55:00
9:56 PM,68.4,63.7,85,29.63,10.0,ENE,19.6,27.6,0.01,Thunderstorm,Thunderstorm,70,2013-05-19 02:56:00
10:09 PM,68.0,62.6,83,29.68,10.0,ENE,16.1,-,N/A,,Mostly Cloudy,70,2013-05-19 03:09:00
10:46 PM,68.0,64.4,88,29.69,10.0,East,13.8,-,N/A,,Clear,90,2013-05-19 03:46:00
10:58 PM,68.2,64.0,87,29.65,10.0,East,18.4,24.2,N/A,,Clear,90,2013-05-19 03:58:00
11:58 PM,70.9,66.0,85,29.65,10.0,ESE,19.6,24.2,N/A,,Clear,110,2013-05-19 04:58:00